Pawtucket, RI

3:10 PM EDT on July 27, 2017 (GMT -0400)
North Central State

Weather History for KSFZ - December, 2013

Change the Weather History Date:

Tuesday, December 10, 2013

  Actual Average Record
Temperature  
Mean Temperature 26 °F -  
Max Temperature 33 °F 40 °F 60 °F (2012)
Min Temperature 19 °F 26 °F 8 °F (2000)
Degree Days  
Heating Degree Days 39    
Moisture  
Dew Point 25 °F    
Average Humidity 83    
Maximum Humidity 93    
Minimum Humidity 69    
Precipitation  
Precipitation 0.10 in - - ()
Sea Level Pressure  
Sea Level Pressure 29.90 in    
Wind  
Wind Speed 5 mph (West)    
Max Wind Speed 13 mph    
Max Gust Speed 18 mph    
Visibility 5 miles    
Events      
Averages and records for this station are not official NWS values.
T = Trace of Precipitation, MM = Missing Value Source: NWS Daily Summary

Daily Weather History Graph

Daily Weather History Graph

Search for Another Location

Airport or City:

Trip Planner

Search our weather history database for the weather conditions in past years. The results will help you decide how hot, cold, wet, or windy it might be!

Date:

Astronomy

Dec. 10, 2013 Rise Set
Actual Time 7:02 AM EST 4:14 PM EST
Civil Twilight 6:31 AM EST 4:46 PM EST
Nautical Twilight 5:56 AM EST 5:21 PM EST
Astronomical Twilight 5:22 AM EST 5:55 PM EST
Moon 12:19 PM EST (12/10) 12:12 AM EST (12/10)
Length of Visible Light 10h 14m
Length of Day
9h 11m
First Quarter, 61% of the Moon is Illuminated
Dec 10
First Quarter
Dec 17
Full
Dec 25
Last Quarter
Jan 1
New
Jan 7
First Quarter

Hourly Weather History & Observations

Time (EST) Temp. Windchill Dew Point Humidity Pressure Visibility Wind Dir Wind Speed Gust Speed Precip Events Conditions
12:15 AM 33.8 °F 29.6 °F 28.4 °F 81% 29.92 in 8.0 mi WSW 4.6 mph - N/A   Clear
12:35 AM 33.8 °F 30.8 °F 28.4 °F 81% 29.92 in 9.0 mi WSW 3.5 mph - N/A   Clear
12:55 AM 32.0 °F 28.7 °F 28.4 °F 87% 29.92 in 9.0 mi WSW 3.5 mph - N/A   Clear
1:15 AM 30.2 °F 26.7 °F 26.6 °F 86% 29.92 in 5.0 mi SW 3.5 mph - N/A   Clear
1:35 AM 30.2 °F 25.4 °F 26.6 °F 86% 29.92 in 4.0 mi SW 4.6 mph - N/A   Clear
1:55 AM 30.2 °F 26.7 °F 26.6 °F 86% 29.92 in 5.0 mi SW 3.5 mph - N/A   Clear
2:15 AM 28.4 °F 24.6 °F 24.8 °F 86% 29.92 in 3.0 mi WSW 3.5 mph - N/A   Clear
2:35 AM 28.4 °F 24.6 °F 24.8 °F 86% 29.92 in 5.0 mi SSW 3.5 mph - N/A   Clear
2:55 AM 28.4 °F 24.6 °F 24.8 °F 86% 29.91 in 5.0 mi WSW 3.5 mph - N/A   Clear
3:15 AM 28.4 °F 24.6 °F 24.8 °F 86% 29.89 in 4.0 mi SW 3.5 mph - N/A   Clear
3:35 AM 28.4 °F 24.6 °F 24.8 °F 86% 29.91 in 7.0 mi WSW 3.5 mph - N/A   Clear
3:55 AM 28.4 °F 24.6 °F 24.8 °F 86% 29.90 in 5.0 mi SSW 3.5 mph - N/A   Clear
4:15 AM 28.4 °F - 24.8 °F 86% 29.90 in 5.0 mi Calm Calm - N/A   Clear
4:35 AM 26.6 °F 21.2 °F 23.0 °F 86% 29.94 in 4.0 mi WSW 4.6 mph - N/A   Clear
4:55 AM 28.4 °F - 24.8 °F 86% 29.92 in 4.0 mi Calm Calm - N/A   Clear
5:15 AM 28.4 °F 23.3 °F 24.8 °F 86% 29.95 in 4.0 mi West 4.6 mph - N/A   Clear
5:35 AM 28.4 °F 24.6 °F 24.8 °F 86% 29.95 in 6.0 mi SW 3.5 mph - N/A   Clear
5:55 AM 30.2 °F 26.7 °F 26.6 °F 86% 29.95 in 5.0 mi SSW 3.5 mph - N/A   Partly Cloudy
6:15 AM 30.2 °F 26.7 °F 26.6 °F 86% 29.93 in 7.0 mi SSW 3.5 mph - N/A   Clear
6:35 AM 30.2 °F - 26.6 °F 86% 29.91 in 7.0 mi Calm Calm - N/A   Mostly Cloudy
6:55 AM 30.2 °F 26.7 °F 26.6 °F 86% 29.88 in 5.0 mi NW 3.5 mph - N/A   Scattered Clouds
7:15 AM 30.2 °F 25.4 °F 26.6 °F 86% 29.94 in 3.0 mi South 4.6 mph - N/A   Mostly Cloudy
7:35 AM 30.2 °F 26.7 °F 26.6 °F 86% 29.94 in 3.0 mi SW 3.5 mph - N/A   Mostly Cloudy
7:55 AM 30.2 °F 23.4 °F 28.4 °F 93% 29.96 in 2.5 mi West 6.9 mph - N/A   Mostly Cloudy
8:15 AM 32.0 °F 24.8 °F 28.4 °F 87% 29.96 in 1.8 mi WNW 8.1 mph - N/A   Overcast
8:35 AM 32.0 °F 24.8 °F 28.4 °F 87% 29.95 in 1.5 mi WNW 8.1 mph - N/A   Overcast
8:55 AM 32.0 °F 27.5 °F 28.4 °F 87% 29.94 in 2.0 mi West 4.6 mph - N/A   Overcast
9:15 AM 32.0 °F - 28.4 °F 87% 29.93 in 1.0 mi Calm Calm - 0.01 in   Overcast
9:35 AM 32.0 °F - 28.4 °F 87% 29.94 in 0.8 mi Calm Calm - 0.01 in   Overcast
9:55 AM 32.0 °F 28.7 °F 28.4 °F 87% 29.93 in 1.0 mi SSW 3.5 mph - 0.02 in   Overcast
10:15 AM 32.0 °F 27.5 °F 28.4 °F 87% 29.92 in 0.8 mi SSW 4.6 mph - N/A   Overcast
10:35 AM 32.0 °F - 28.4 °F 87% 29.90 in 0.8 mi Calm Calm - 0.01 in   Overcast
10:55 AM 32.0 °F 27.5 °F 28.4 °F 87% 29.89 in 1.0 mi West 4.6 mph - 0.01 in   Overcast
11:15 AM 32.0 °F 28.7 °F 28.4 °F 87% 29.87 in 2.0 mi SW 3.5 mph - 0.01 in   Overcast
11:35 AM 32.0 °F - 28.4 °F 87% 29.86 in 1.5 mi Calm Calm - 0.02 in   Overcast
11:55 AM 32.0 °F - 28.4 °F 87% 29.83 in 1.0 mi Calm Calm - 0.03 in   Overcast
12:15 PM 30.2 °F 24.3 °F 26.6 °F 86% 29.81 in 3.0 mi West 5.8 mph - N/A   Overcast
12:35 PM 30.2 °F 26.7 °F 26.6 °F 86% 29.81 in 10.0 mi WNW 3.5 mph - 0.01 in   Overcast
12:55 PM 30.2 °F 25.4 °F 26.6 °F 86% 29.82 in 7.0 mi West 4.6 mph - 0.01 in   Overcast
1:15 PM 30.2 °F 24.3 °F 26.6 °F 86% 29.81 in 4.0 mi West 5.8 mph - N/A   Overcast
1:35 PM 30.2 °F 24.3 °F 26.6 °F 86% 29.81 in 5.0 mi West 5.8 mph - N/A   Overcast
1:55 PM 30.2 °F 26.7 °F 26.6 °F 86% 29.82 in 3.0 mi West 3.5 mph - N/A   Overcast
2:15 PM 30.2 °F 24.3 °F 26.6 °F 86% 29.81 in 1.8 mi West 5.8 mph - 0.01 in   Overcast
2:35 PM 30.2 °F 24.3 °F 26.6 °F 86% 29.80 in 2.5 mi West 5.8 mph - 0.01 in   Overcast
2:55 PM 30.2 °F 23.4 °F 26.6 °F 86% 29.80 in 3.0 mi West 6.9 mph - 0.01 in   Mostly Cloudy
3:15 PM 30.2 °F 23.4 °F 26.6 °F 86% 29.81 in 2.5 mi West 6.9 mph - N/A   Overcast
3:35 PM 30.2 °F 23.4 °F 26.6 °F 86% 29.81 in 3.0 mi West 6.9 mph - N/A   Overcast
3:55 PM 30.2 °F 22.6 °F 24.8 °F 80% 29.81 in 6.0 mi West 8.1 mph - 0.01 in   Overcast
4:15 PM 30.2 °F 24.3 °F 26.6 °F 86% 29.82 in 7.0 mi West 5.8 mph - N/A   Overcast
4:35 PM 30.2 °F 24.3 °F 26.6 °F 86% 29.84 in 1.2 mi West 5.8 mph - N/A   Overcast
4:55 PM 30.2 °F 24.3 °F 26.6 °F 86% 29.84 in 2.5 mi West 5.8 mph - N/A   Overcast
5:15 PM 30.2 °F 22.6 °F 24.8 °F 80% 29.84 in 4.0 mi West 8.1 mph - N/A   Overcast
5:35 PM 30.2 °F 24.3 °F 24.8 °F 80% 29.84 in 4.0 mi West 5.8 mph - N/A   Overcast
5:55 PM 30.2 °F 23.4 °F 24.8 °F 80% 29.85 in 5.0 mi West 6.9 mph - 0.01 in   Overcast
6:15 PM 30.2 °F 25.4 °F 24.8 °F 80% 29.87 in 5.0 mi West 4.6 mph - N/A   Overcast
6:35 PM 30.2 °F 23.4 °F 24.8 °F 80% 29.88 in 10.0 mi WNW 6.9 mph - N/A   Overcast
6:55 PM 30.2 °F 21.9 °F 24.8 °F 80% 29.88 in 10.0 mi West 9.2 mph - N/A   Overcast
7:15 PM 28.4 °F 19.7 °F 23.0 °F 80% 29.89 in 10.0 mi West 9.2 mph 17.3 mph N/A   Overcast
7:35 PM 28.4 °F 19.7 °F 21.2 °F 74% 29.89 in 10.0 mi WNW 9.2 mph 18.4 mph N/A   Mostly Cloudy
7:55 PM 26.6 °F 17.5 °F 21.2 °F 80% 29.91 in 10.0 mi West 9.2 mph - N/A   Mostly Cloudy
8:15 PM 26.6 °F 16.2 °F 19.4 °F 74% 29.91 in 10.0 mi West 11.5 mph - N/A   Mostly Cloudy
8:35 PM 26.6 °F 17.5 °F 17.6 °F 69% 29.91 in 10.0 mi West 9.2 mph - N/A   Partly Cloudy
8:55 PM 24.8 °F 15.3 °F 17.6 °F 74% 29.92 in 10.0 mi West 9.2 mph 16.1 mph N/A   Clear
9:15 PM 24.8 °F 14.0 °F 17.6 °F 74% 29.93 in 10.0 mi West 11.5 mph - N/A   Clear
9:35 PM 24.8 °F 14.0 °F 15.8 °F 69% 29.95 in 10.0 mi WNW 11.5 mph - N/A   Clear
9:55 PM 24.8 °F 14.0 °F 15.8 °F 69% 29.96 in 10.0 mi West 11.5 mph 16.1 mph N/A   Clear
10:15 PM 24.8 °F 13.4 °F 15.8 °F 69% 29.97 in 10.0 mi WNW 12.7 mph 18.4 mph N/A   Clear
10:35 PM 23.0 °F 13.9 °F 15.8 °F 74% 29.98 in 10.0 mi West 8.1 mph - N/A   Clear
10:55 PM 23.0 °F 13.9 °F 15.8 °F 74% 29.99 in 10.0 mi West 8.1 mph - N/A   Clear
11:15 PM 21.2 °F 13.6 °F 15.8 °F 80% 30.00 in 10.0 mi West 5.8 mph - N/A   Clear
11:35 PM 19.4 °F 14.3 °F 14.0 °F 80% 30.01 in 10.0 mi West 3.5 mph - N/A   Clear
11:55 PM 19.4 °F 12.8 °F 12.2 °F 74% 30.02 in 10.0 mi West 4.6 mph - N/A   Clear